Index of /pwads/hr/speed

[ICO]NameLast modifiedSize

[DIR]Parent Directory  -
[   ]hr01-007.zip20-Sep-2011 19:54 886
[   ]hr01-008.zip20-Sep-2011 19:54 804
[   ]hr01-009.zip20-Sep-2011 19:54 1.0K
[   ]hr02-042.zip20-Sep-2011 19:54 1.8K
[   ]hr02-046.zip20-Sep-2011 19:54 1.8K
[   ]hr02-048.zip20-Sep-2011 19:54 1.8K
[   ]hr02-055.zip20-Sep-2011 19:54 2.0K
[   ]hr02-106.zip20-Sep-2011 19:54 3.2K
[   ]hr02-115.zip20-Sep-2011 19:54 2.7K
[   ]hr02-116.zip20-Sep-2011 19:54 3.6K
[   ]hr02-124.zip20-Sep-2011 19:54 2.8K
[   ]hr02-128.zip20-Sep-2011 19:54 4.0K
[   ]hr02-137.zip20-Sep-2011 19:54 3.1K
[   ]hr02-140.zip20-Sep-2011 19:54 4.4K
[   ]hr02-142.zip20-Sep-2011 19:54 4.4K
[   ]hr02-144.zip20-Sep-2011 19:54 5.0K
[   ]hr03-056.zip20-Sep-2011 19:54 2.5K
[   ]hr03-058.zip20-Sep-2011 19:54 2.7K
[   ]hr03-103.zip20-Sep-2011 19:54 3.0K
[   ]hr03-110.zip20-Sep-2011 19:54 2.5K
[   ]hr03-115.zip20-Sep-2011 19:54 2.6K
[   ]hr03-121.zip20-Sep-2011 19:54 3.5K
[   ]hr03-125.zip20-Sep-2011 19:54 4.4K
[   ]hr03-126.zip20-Sep-2011 19:54 3.9K
[   ]hr04-036.zip20-Sep-2011 19:54 1.7K
[   ]hr04-037.zip20-Sep-2011 19:54 1.9K
[   ]hr04-038.zip20-Sep-2011 19:54 1.8K
[   ]hr04-039.zip20-Sep-2011 19:54 1.8K
[   ]hr04-040.zip20-Sep-2011 19:54 1.8K
[   ]hr04-041.zip20-Sep-2011 19:54 2.1K
[   ]hr04-044.zip20-Sep-2011 19:54 2.1K
[   ]hr04-046.zip20-Sep-2011 19:54 2.3K
[   ]hr05-212.zip20-Sep-2011 19:54 4.3K
[   ]hr05-216.zip20-Sep-2011 19:54 4.3K
[   ]hr05-220.zip20-Sep-2011 19:54 4.2K
[   ]hr05-245.zip20-Sep-2011 19:54 4.7K
[   ]hr05-251.zip20-Sep-2011 19:54 4.7K
[   ]hr05-253.zip20-Sep-2011 19:54 3.4K
[   ]hr05-307.zip20-Sep-2011 19:54 8.7K
[   ]hr06-112.zip20-Sep-2011 19:54 2.6K
[   ]hr06-115.zip20-Sep-2011 19:54 3.8K
[   ]hr06-119.zip20-Sep-2011 19:54 2.8K
[   ]hr06-122.zip20-Sep-2011 19:54 3.1K
[   ]hr06-135.zip20-Sep-2011 19:54 3.2K
[   ]hr06-202.zip20-Sep-2011 19:54 2.6K
[   ]hr07-408.zip20-Sep-2011 19:54 5.6K
[   ]hr07-410.zip20-Sep-2011 19:54 5.9K
[   ]hr07-412.zip20-Sep-2011 19:54 5.6K
[   ]hr07-420.zip20-Sep-2011 19:54 4.5K
[   ]hr08-034.zip20-Sep-2011 19:54 1.6K
[   ]hr08-035.zip20-Sep-2011 19:54 1.7K
[   ]hr08-036.zip20-Sep-2011 19:54 2.0K
[   ]hr08-037.zip20-Sep-2011 19:54 1.7K
[   ]hr08-038.zip20-Sep-2011 19:54 6.6K
[   ]hr08-039.zip20-Sep-2011 19:54 6.8K
[   ]hr08-040.zip20-Sep-2011 19:54 6.9K
[   ]hr08-043.zip20-Sep-2011 19:54 2.0K
[   ]hr08-045.zip20-Sep-2011 19:54 2.0K
[   ]hr08-047.zip20-Sep-2011 19:54 1.9K
[   ]hr08-048.zip20-Sep-2011 19:54 2.1K
[   ]hr08-057.zip20-Sep-2011 19:54 2.4K
[   ]hr09-101.zip20-Sep-2011 19:54 2.1K
[   ]hr09-103.zip20-Sep-2011 19:54 2.0K
[   ]hr09-113.zip20-Sep-2011 19:54 2.3K
[   ]hr09-147.zip20-Sep-2011 19:55 3.3K
[   ]hr09-153.zip20-Sep-2011 19:55 4.4K
[   ]hr09-304.zip20-Sep-2011 19:55 3.7K
[   ]hr10-036.zip20-Sep-2011 19:55 1.6K
[   ]hr10-037.zip20-Sep-2011 19:55 1.6K
[   ]hr10-039.zip20-Sep-2011 19:55 1.8K
[   ]hr10-055.zip20-Sep-2011 19:55 2.4K
[   ]hr12-058.zip20-Sep-2011 19:55 4.5K
[   ]hr12-059.zip20-Sep-2011 19:55 2.3K
[   ]hr12-101.zip20-Sep-2011 19:55 2.1K
[   ]hr12-106.zip20-Sep-2011 19:55 2.5K
[   ]hr12-109.zip20-Sep-2011 19:55 3.1K
[   ]hr12-124.zip20-Sep-2011 19:55 3.0K
[   ]hr13-106.zip20-Sep-2011 19:55 2.4K
[   ]hr14-147.zip20-Sep-2011 19:55 3.2K
[   ]hr15-120.zip20-Sep-2011 19:55 3.0K
[   ]hr15-310.zip20-Sep-2011 19:55 3.7K
[   ]hr15s045.zip20-Sep-2011 19:55 1.9K
[   ]hr15s049.zip20-Sep-2011 19:55 2.1K
[   ]hr15s117.zip20-Sep-2011 19:55 2.3K
[   ]hr16-302.zip20-Sep-2011 19:55 3.1K
[   ]hr16-314.zip20-Sep-2011 19:55 2.6K
[   ]hr16-654.zip20-Sep-2011 19:55 4.7K
[   ]hr17-622.zip20-Sep-2011 19:55 5.4K
[   ]hr18-348.zip20-Sep-2011 19:55 3.2K
[   ]hr18-530.zip20-Sep-2011 19:55 4.5K
[   ]hr18-543.zip20-Sep-2011 19:55 4.1K
[   ]hr18-851.zip20-Sep-2011 19:55 7.4K
[   ]hr19-024.zip20-Sep-2011 19:55 1.3K
[   ]hr19-031.zip20-Sep-2011 19:55 1.4K
[   ]hr21-026.zip20-Sep-2011 19:55 1.4K
[   ]hr21-027.zip20-Sep-2011 19:55 1.4K
[   ]hr21-028.zip20-Sep-2011 19:55 1.2K
[   ]hr21-029.zip20-Sep-2011 19:55 1.4K
[   ]hr21-031.zip20-Sep-2011 19:55 1.5K
[   ]hr21-039.zip20-Sep-2011 19:55 1.6K
[   ]hr24-018.zip20-Sep-2011 19:55 1.0K
[   ]hr24-019.zip20-Sep-2011 19:55 1.4K
[   ]hr24-020.zip20-Sep-2011 19:55 1.1K
[   ]hr24-021.zip20-Sep-2011 19:55 891
[   ]hr24-025.zip20-Sep-2011 19:55 2.1K
[   ]hr24-046.zip20-Sep-2011 19:55 2.0K
[   ]hr25-151.zip20-Sep-2011 19:55 4.3K
[   ]hr25-321.zip20-Sep-2011 19:55 3.7K
[   ]hr26-004.zip20-Sep-2011 19:55 830
[   ]hr26-005.zip20-Sep-2011 19:55 742
[   ]hr26-007.zip20-Sep-2011 19:55 740
[   ]hr27-057.zip20-Sep-2011 19:55 1.5K
[   ]hr27-108.zip20-Sep-2011 19:55 2.2K
[   ]hr27-126.zip20-Sep-2011 19:55 2.9K
[   ]hr28-013.zip20-Sep-2011 19:55 739
[   ]hr28-014.zip20-Sep-2011 19:55 936
[   ]hr28-018.zip20-Sep-2011 19:55 1.1K
[   ]hr28-033.zip20-Sep-2011 19:55 1.5K
[   ]hr28-041.zip20-Sep-2011 19:55 1.6K
[   ]hr30-027.zip20-Sep-2011 19:55 1.4K
[   ]hr30-032.zip20-Sep-2011 19:55 1.7K
[   ]hr30-045.zip20-Sep-2011 19:55 1.8K
[   ]hr30-056.zip20-Sep-2011 19:55 2.5K
[   ]hr30-102.zip20-Sep-2011 19:55 2.6K
[   ]hr31-218.zip20-Sep-2011 19:55 1.4K
[   ]hr31-219.zip20-Sep-2011 19:55 1.5K
[   ]hr31-224.zip20-Sep-2011 19:55 1.7K
[   ]hr31-236.zip20-Sep-2011 19:55 2.3K
[   ]hr31s205.zip20-Sep-2011 19:55 1.0K
[   ]hr31s209.zip20-Sep-2011 19:55 1.2K
[   ]hr32-044.zip20-Sep-2011 19:55 1.7K
[   ]hr32-047.zip20-Sep-2011 19:55 1.7K
[   ]hr32-117.zip20-Sep-2011 19:55 3.0K
[   ]hs31-233.zip20-Sep-2011 19:55 1.3K

Apache/2.2.22 (Debian) Server at competn.mancubus.net Port 80